Prescott, AZ

5:42 PM MST on November 13, 2019 (GMT -0700)
Love

Weather History for KPRC - September, 2019

Change the Weather History Date:

Wednesday, September 25, 2019

  Actual Average Record
Temperature  
Mean Temperature 64 °F 64 °F  
Max Temperature 76 °F 79 °F 90 °F (2015)
Min Temperature 51 °F 50 °F 36 °F (2017)
Degree Days  
Heating Degree Days 2    
Month to date heating degree days 13  
Since 1 July heating degree days 13  
Cooling Degree Days 0    
Month to date cooling degree days 155  
Year to date cooling degree days 1130  
Growing Degree Days 14 (Base 50)    
Moisture  
Dew Point 49 °F    
Average Humidity 62    
Maximum Humidity 83    
Minimum Humidity 38    
Precipitation  
Precipitation 0.00 in 0.04 in 0.53 in (1964)
Month to date precipitation 1.62 1.30  
Year to date precipitation 9.73 10.96  
Sea Level Pressure  
Sea Level Pressure 29.91 in    
Wind  
Wind Speed 4 mph ()    
Max Wind Speed 20 mph    
Max Gust Speed 24 mph    
Visibility 9.0 miles    
Events Thunderstorm    
T = Trace of Precipitation, MM = Missing Value Source: Averaged Metar Reports

Daily Weather History Graph

Daily Weather History Graph

Search for Another Location

Airport or City:

Astronomy

Sep. 25, 2019 Rise Set
Actual Time 6:19 AM MST 6:22 PM MST
Civil Twilight 5:54 AM MST 6:47 PM MST
Nautical Twilight 5:25 AM MST 7:16 PM MST
Astronomical Twilight 4:55 AM MST 7:46 PM MST
Moon 2:31 AM MST (9/25) 4:45 PM MST (9/25)
Length of Visible Light 12h 52m
Length of Day
12h 02m
Waning Crescent, 13% of the Moon is Illuminated
Sep 25
Waning Crescent
Sep 28
New
Oct 5
First Quarter
Oct 13
Full
Oct 21
Last Quarter

Hourly Weather History & Observations

Time (MST) Temp. Dew Point Humidity Pressure Visibility Wind Dir Wind Speed Gust Speed Precip Events Conditions
12:18 AM 55.9 °F 48.9 °F 77% 30.06 in 2.5 mi West 3.5 mph - N/A   Haze
12:25 AM 57.0 °F 48.0 °F 72% 30.06 in 7.0 mi South 4.6 mph - N/A   Clear
12:53 AM 55.9 °F 48.0 °F 75% 29.87 in 2.5 mi WNW 3.5 mph - N/A   Haze
1:04 AM 55.9 °F 46.9 °F 72% 30.06 in 5.0 mi South 3.5 mph - N/A   Haze
1:53 AM 55.0 °F 48.0 °F 77% 29.87 in 9.0 mi SSW 5.8 mph - N/A   Clear
2:53 AM 52.0 °F 46.9 °F 83% 29.87 in 10.0 mi South 3.5 mph - N/A   Clear
3:53 AM 52.0 °F 46.9 °F 83% 29.88 in 10.0 mi South 4.6 mph - N/A   Clear
4:53 AM 52.0 °F 46.0 °F 80% 29.88 in 8.0 mi SSW 4.6 mph - N/A   Clear
5:53 AM 51.1 °F 46.0 °F 83% 29.89 in 10.0 mi Calm Calm - N/A   Clear
6:53 AM 53.1 °F 46.9 °F 80% 29.91 in 10.0 mi SSW 6.9 mph - N/A   Clear
7:53 AM 57.0 °F 48.9 °F 74% 29.92 in 10.0 mi SSW 4.6 mph - N/A   Clear
8:53 AM 62.1 °F 50.0 °F 65% 29.93 in 10.0 mi Calm Calm - N/A   Clear
9:53 AM 66.0 °F 50.0 °F 56% 29.93 in 10.0 mi Calm Calm - N/A   Clear
10:53 AM 71.1 °F 51.1 °F 49% 29.91 in 10.0 mi Variable 6.9 mph - N/A   Partly Cloudy
11:53 AM 72.0 °F 48.9 °F 44% 29.90 in 10.0 mi ESE 9.2 mph - N/A   Clear
12:53 PM 73.0 °F 48.0 °F 41% 29.88 in 10.0 mi SE 12.7 mph 21.9 mph N/A   Scattered Clouds
1:53 PM 73.0 °F 48.9 °F 42% 29.87 in 10.0 mi SE 11.5 mph - N/A   Overcast
2:53 PM 73.0 °F 48.9 °F 42% 29.87 in 10.0 mi SE 11.5 mph - N/A   Scattered Clouds
3:53 PM 73.0 °F 48.0 °F 41% 29.86 in 10.0 mi South 6.9 mph - N/A   Scattered Clouds
4:53 PM 73.0 °F 46.9 °F 39% 29.86 in 10.0 mi SE 8.1 mph - N/A   Scattered Clouds
5:53 PM 72.0 °F 46.9 °F 41% 29.86 in 10.0 mi SE 5.8 mph - N/A   Clear
6:53 PM 68.0 °F 48.9 °F 50% 29.88 in 10.0 mi Calm Calm - N/A   Clear
7:53 PM 66.0 °F 48.0 °F 52% 29.88 in 10.0 mi Calm Calm - N/A   Mostly Cloudy
8:53 PM 64.9 °F 50.0 °F 58% 29.89 in 10.0 mi SSW 4.6 mph - N/A   Clear
9:53 PM 64.9 °F 51.1 °F 61% 29.88 in 10.0 mi SE 6.9 mph - N/A   Clear
10:53 PM 64.0 °F 51.1 °F 63% 29.89 in 10.0 mi SSE 3.5 mph - N/A   Clear
11:53 PM 61.0 °F 53.1 °F 75% 29.92 in 10.0 mi SW 12.7 mph - N/A Thunderstorm Mostly Cloudy